Fremont, MI

2:59 PM EDT on October 23, 2019 (GMT -0400)
Fremont

Weather History for KFFX - August, 2019

Change the Weather History Date:

Saturday, August 31, 2019

  Actual Average (WUND) Record (WUND)
Temperature  
Mean Temperature 58 °F -  
Max Temperature 72 °F - - (-1)
Min Temperature 45 °F - - (-1)
Degree Days  
Heating Degree Days 6    
Growing Degree Days 8 (Base 50)    
Moisture  
Dew Point 41 °F    
Average Humidity 56    
Maximum Humidity 93    
Minimum Humidity 22    
Precipitation  
Precipitation 0.00 in - - ()
Sea Level Pressure  
Sea Level Pressure 30.29 in    
Wind  
Wind Speed 2 mph ()    
Max Wind Speed 12 mph    
Max Gust Speed 20 mph    
Visibility 10.0 miles    
Events      
Averages and records for this station are not official NWS values.
T = Trace of Precipitation, MM = Missing Value Source: Averaged Metar Reports

Daily Weather History Graph

Daily Weather History Graph

Search for Another Location

Airport or City:

Astronomy

Aug. 31, 2019 Rise Set
Actual Time 7:06 AM EDT 8:21 PM EDT
Civil Twilight 6:36 AM EDT 8:50 PM EDT
Nautical Twilight 6:01 AM EDT 9:26 PM EDT
Astronomical Twilight 5:23 AM EDT 10:03 PM EDT
Moon 8:22 AM EDT (8/31) 9:31 PM EDT (8/31)
Length of Visible Light 14h 13m
Length of Day
13h 14m
New Moon, 2% of the Moon is Illuminated
Aug 31
New Moon
Sep 5
First Quarter
Sep 14
Full
Sep 21
Last Quarter
Sep 28
New

Hourly Weather History & Observations

Time (EDT) Temp. Dew Point Humidity Pressure Visibility Wind Dir Wind Speed Gust Speed Precip Events Conditions
12:15 AM 50.5 °F 46.6 °F 86% 30.24 in 10.0 mi Calm Calm - N/A   Clear
12:35 AM 49.6 °F 46.9 °F 90% 30.24 in 10.0 mi Calm Calm - N/A   Clear
12:59 AM 49.8 °F 46.6 °F 89% 30.25 in 10.0 mi Calm Calm - N/A   Clear
1:17 AM 48.4 °F 45.9 °F 91% 30.26 in 10.0 mi Calm Calm - N/A   Clear
1:35 AM 47.3 °F 45.0 °F 92% 30.26 in 10.0 mi Calm Calm - N/A   Clear
1:55 AM 48.0 °F 45.9 °F 92% 30.26 in 10.0 mi Calm Calm - N/A   Clear
2:15 AM 48.6 °F 46.2 °F 92% 30.26 in 10.0 mi Calm Calm - N/A   Clear
2:38 AM 46.8 °F 44.6 °F 92% 30.26 in 10.0 mi Calm Calm - N/A   Clear
2:56 AM 46.4 °F 44.4 °F 93% 30.27 in 10.0 mi Calm Calm - N/A   Clear
3:15 AM 47.7 °F 45.3 °F 92% 30.27 in 10.0 mi Calm Calm - N/A   Clear
3:16 AM 47.5 °F 45.1 °F 92% 30.27 in 10.0 mi Calm Calm - N/A   Clear
3:35 AM 47.3 °F 44.8 °F 91% 30.27 in 10.0 mi Calm Calm - N/A   Clear
3:59 AM 46.4 °F 43.9 °F 91% 30.28 in 10.0 mi Calm Calm - N/A   Clear
4:17 AM 47.1 °F 44.4 °F 90% 30.28 in 10.0 mi Calm Calm - N/A   Clear
4:35 AM 46.4 °F 43.7 °F 90% 30.28 in 10.0 mi Calm Calm - N/A   Clear
4:36 AM 46.4 °F 43.7 °F 90% 30.28 in 10.0 mi Calm Calm - N/A   Clear
4:55 AM 46.9 °F 44.1 °F 90% 30.28 in 10.0 mi Calm Calm - N/A   Clear
4:56 AM 47.1 °F 44.2 °F 90% 30.28 in 10.0 mi Calm Calm - N/A   Clear
5:15 AM 48.4 °F 44.8 °F 87% 30.28 in 10.0 mi Calm Calm - N/A   Clear
5:38 AM 47.7 °F 44.2 °F 88% 30.29 in 10.0 mi Calm Calm - N/A   Clear
5:56 AM 49.8 °F 46.8 °F 89% 30.29 in 10.0 mi East 3.5 mph - N/A   Clear
6:15 AM 46.4 °F 44.1 °F 92% 30.30 in 10.0 mi Calm Calm - N/A   Clear
6:16 AM 46.4 °F 44.2 °F 92% 30.30 in 10.0 mi Calm Calm - N/A   Clear
6:35 AM 46.0 °F 44.1 °F 93% 30.31 in 10.0 mi Calm Calm - N/A   Clear
6:36 AM 46.2 °F 44.2 °F 93% 30.31 in 10.0 mi Calm Calm - N/A   Clear
6:58 AM 45.0 °F 43.0 °F 93% 30.32 in 10.0 mi Calm Calm - N/A   Clear
7:17 AM 48.0 °F 46.0 °F 93% 30.33 in 10.0 mi Calm Calm - N/A   Clear
7:35 AM 49.1 °F 46.4 °F 90% 30.32 in 10.0 mi East 4.6 mph - N/A   Clear
7:55 AM 51.6 °F 48.2 °F 88% 30.32 in 10.0 mi Calm Calm - N/A   Clear
8:15 AM 51.8 °F 48.0 °F 87% 30.33 in 10.0 mi Calm Calm - N/A   Clear
8:20 AM 52.0 °F 48.2 °F 87% 30.33 in 10.0 mi East 3.5 mph - N/A   Clear
8:38 AM 53.8 °F 49.3 °F 85% 30.33 in 10.0 mi East 3.5 mph - N/A   Clear
8:56 AM 54.7 °F 48.2 °F 79% 30.34 in 10.0 mi Calm Calm - N/A   Clear
9:15 AM 56.5 °F 45.5 °F 67% 30.34 in 10.0 mi East 3.5 mph - N/A   Clear
9:16 AM 56.7 °F 44.8 °F 64% 30.34 in 10.0 mi East 3.5 mph - N/A   Clear
9:35 AM 57.2 °F 44.1 °F 62% 30.34 in 10.0 mi East 3.5 mph - N/A   Clear
9:36 AM 57.2 °F 43.9 °F 61% 30.34 in 10.0 mi East 3.5 mph - N/A   Clear
9:59 AM 58.6 °F 45.3 °F 61% 30.35 in 10.0 mi Calm Calm - N/A   Clear
10:17 AM 61.7 °F 42.4 °F 49% 30.35 in 10.0 mi ESE 4.6 mph - N/A   Clear
10:35 AM 63.7 °F 38.8 °F 40% 30.35 in 10.0 mi ESE 8.1 mph - N/A   Clear
10:55 AM 63.3 °F 39.6 °F 42% 30.35 in 10.0 mi SSE 5.8 mph - N/A   Clear
11:15 AM 64.9 °F 39.4 °F 39% 30.34 in 10.0 mi SE 6.9 mph - N/A   Clear
11:20 AM 65.3 °F 39.2 °F 38% 30.34 in 10.0 mi ESE 8.1 mph - N/A   Clear
11:38 AM 66.0 °F 38.3 °F 36% 30.34 in 10.0 mi SE 8.1 mph - N/A   Clear
11:56 AM 67.1 °F 37.6 °F 34% 30.34 in 10.0 mi ESE 8.1 mph - N/A   Clear
12:15 PM 68.2 °F 35.4 °F 30% 30.34 in 10.0 mi East 8.1 mph - N/A   Clear
12:35 PM 68.9 °F 36.5 °F 30% 30.33 in 10.0 mi East 10.4 mph - N/A   Clear
12:59 PM 70.0 °F 33.6 °F 26% 30.33 in 10.0 mi ESE 9.2 mph 16.1 mph N/A   Clear
1:17 PM 70.2 °F 34.0 °F 26% 30.33 in 10.0 mi East 6.9 mph - N/A   Clear
1:35 PM 71.6 °F 34.5 °F 26% 30.33 in 10.0 mi ESE 11.5 mph 17.3 mph N/A   Clear
1:36 PM 71.6 °F 34.2 °F 25% 30.33 in 10.0 mi ESE 10.4 mph 17.3 mph N/A   Clear
1:55 PM 70.9 °F 33.8 °F 26% 30.33 in 10.0 mi ESE 9.2 mph - N/A   Clear
2:15 PM 70.9 °F 33.4 °F 25% 30.33 in 10.0 mi ESE 9.2 mph - N/A   Clear
2:38 PM 72.3 °F 33.1 °F 24% 30.32 in 10.0 mi SE 11.5 mph - N/A   Clear
2:56 PM 71.4 °F 31.5 °F 23% 30.32 in 10.0 mi ESE 8.1 mph - N/A   Clear
3:15 PM 72.0 °F 31.5 °F 22% 30.31 in 10.0 mi East 9.2 mph 19.6 mph N/A   Clear
3:16 PM 72.1 °F 31.8 °F 23% 30.31 in 10.0 mi East 8.1 mph 19.6 mph N/A   Clear
3:35 PM 72.1 °F 33.4 °F 24% 30.31 in 10.0 mi ESE 6.9 mph - N/A   Clear
3:36 PM 72.1 °F 33.8 °F 24% 30.31 in 10.0 mi ESE 5.8 mph - N/A   Clear
3:59 PM 71.8 °F 33.3 °F 24% 30.31 in 10.0 mi SE 8.1 mph - N/A   Scattered Clouds
4:17 PM 71.4 °F 35.2 °F 27% 30.30 in 10.0 mi Calm Calm - N/A   Scattered Clouds
4:35 PM 71.6 °F 35.1 °F 26% 30.30 in 10.0 mi SE 6.9 mph - N/A   Scattered Clouds
4:55 PM 71.6 °F 33.8 °F 25% 30.29 in 10.0 mi SSE 6.9 mph - N/A   Clear
5:15 PM 72.0 °F 32.5 °F 23% 30.29 in 10.0 mi SE 9.2 mph - N/A   Clear
5:20 PM 71.1 °F 31.8 °F 23% 30.28 in 10.0 mi ESE 5.8 mph - N/A   Clear
5:38 PM 70.7 °F 36.1 °F 28% 30.28 in 10.0 mi ESE 5.8 mph - N/A   Clear
5:56 PM 70.7 °F 34.0 °F 26% 30.29 in 10.0 mi SE 5.8 mph - N/A   Clear
6:15 PM 70.3 °F 34.2 °F 26% 30.28 in 10.0 mi ESE 5.8 mph - N/A   Clear
6:16 PM 70.5 °F 33.6 °F 26% 30.28 in 10.0 mi ESE 6.9 mph - N/A   Clear
6:35 PM 69.3 °F 34.0 °F 27% 30.28 in 10.0 mi East 4.6 mph - N/A   Clear
6:59 PM 68.9 °F 37.6 °F 32% 30.27 in 10.0 mi East 5.8 mph - N/A   Clear
7:17 PM 68.0 °F 38.5 °F 34% 30.26 in 10.0 mi East 3.5 mph - N/A   Clear
7:35 PM 67.1 °F 40.1 °F 37% 30.26 in 10.0 mi East 3.5 mph - N/A   Clear
7:36 PM 67.1 °F 40.1 °F 37% 30.26 in 10.0 mi East 3.5 mph - N/A   Clear
7:55 PM 66.6 °F 40.3 °F 38% 30.26 in 10.0 mi East 4.6 mph - N/A   Clear
8:15 PM 65.8 °F 42.1 °F 42% 30.26 in 10.0 mi East 4.6 mph - N/A   Clear
8:38 PM 65.7 °F 40.8 °F 40% 30.25 in 10.0 mi East 3.5 mph - N/A   Clear
8:56 PM 65.1 °F 41.4 °F 42% 30.25 in 10.0 mi Calm Calm - N/A   Clear
9:15 PM 64.8 °F 41.4 °F 42% 30.25 in 10.0 mi Calm Calm - N/A   Clear
9:16 PM 64.8 °F 41.4 °F 42% 30.26 in 10.0 mi Calm Calm - N/A   Clear
9:35 PM 64.0 °F 42.1 °F 45% 30.25 in 10.0 mi Calm Calm - N/A   Scattered Clouds
9:36 PM 64.0 °F 42.3 °F 45% 30.26 in 10.0 mi Calm Calm - N/A   Scattered Clouds
9:59 PM 63.1 °F 43.7 °F 49% 30.25 in 10.0 mi East 5.8 mph - N/A   Scattered Clouds
10:17 PM 63.3 °F 45.0 °F 51% 30.26 in 10.0 mi East 4.6 mph - N/A   Mostly Cloudy
10:35 PM 63.5 °F 45.0 °F 51% 30.26 in 10.0 mi East 4.6 mph - N/A   Overcast
10:55 PM 63.3 °F 45.1 °F 52% 30.26 in 10.0 mi ENE 5.8 mph - N/A   Overcast
10:56 PM 63.5 °F 45.0 °F 51% 30.26 in 10.0 mi East 5.8 mph - N/A   Overcast
11:15 PM 63.0 °F 45.3 °F 53% 30.26 in 10.0 mi East 5.8 mph - N/A   Mostly Cloudy
11:20 PM 63.0 °F 45.5 °F 53% 30.26 in 10.0 mi East 5.8 mph - N/A   Mostly Cloudy
11:37 PM 63.1 °F 45.1 °F 52% 30.26 in 10.0 mi East 5.8 mph - N/A   Mostly Cloudy
11:56 PM 62.2 °F 46.4 °F 56% 30.26 in 10.0 mi East 4.6 mph - N/A   Overcast